Regional Weather Roundup
Issued by NWS

Home | Current Version | Previous Version | Text Only | Print | Product List | Glossary Off
Versions: 1 2 3 4 5 6 7 8 9 10 11 12 13 14 15 16 17 18 19 20 21 22 23 24 25 26 27 28 29 30 31 32 33 34 35 36 37 38 39 40 41 42 43 44 45 46 47 48 49 50

000
ASUS45 KPSR 251510
RWRAZ

ARIZONA HOURLY REGIONAL WEATHER ROUNDUP
NATIONAL WEATHER SERVICE PHOENIX AZ
800 AM MST MON MAY 25 2015

NOTE: FAIR INDICATES FEW OR NO CLOUDS BELOW 12,000 FEET WITH NO
SIGNIFICANT WEATHER AND/OR OBSTRUCTIONS TO VISIBILITY.

AZZ001>003-036-251600-
NORTHWEST ARIZONA

CITY           SKY/WX    TMP DP  RH WIND       PRES   REMARKS
BULLHEAD CITY  PTSUNNY   73  55  53 N15       29.89R
KINGMAN        PTSUNNY   65  47  52 CALM      29.98R
$$

AZZ004>008-015-016-018-251600-
NORTH CENTRAL ARIZONA

CITY           SKY/WX    TMP DP  RH WIND       PRES   REMARKS
GRAND CANYON   LGT RAIN  45  43  93 CALM      30.09R
WILLIAMS       CLOUDY    50  45  81 SW5       30.16R
PRESCOTT       CLOUDY    58  38  47 S3        30.05R
FLAGSTAFF      CLOUDY    49  44  83 VRB6      30.10R
PAYSON         MOSUNNY   59  36  41 CALM      30.08R
PAGE           CLOUDY    60  48  64 CALM      29.98R
$$

AZZ009>014-017-251600-
NORTHEAST ARIZONA

CITY           SKY/WX    TMP DP  RH WIND       PRES   REMARKS
WINSLOW        LGT RAIN  59  44  57 W10       30.04R
SAINT JOHNS    PTSUNNY   60  35  39 W18       30.05R
WINDOW ROCK    MOSUNNY   55  40  56 W16       30.06R
SHOW LOW       CLOUDY    50  36  57 S7        30.11R
$$

AZZ023-251600-
GREATER PHOENIX AREA

CITY           SKY/WX    TMP DP  RH WIND       PRES   REMARKS
PHOENIX        MOSUNNY   72  45  37 SE6       29.91R
BUCKEYE        SUNNY     72  46  40 S3        29.93R
GLENDALE       MOSUNNY   72  46  40 S5        29.92R
LUKE AFB       SUNNY     73  45  36 W2        29.91R
DEER VALLEY    SUNNY     71  44  37 CALM      29.92R
SCOTTSDALE     SUNNY     71  41  33 S3        29.94R
MESA-FALCON    MOSUNNY   72  39  30 E7        29.92R
MESA-GATEWAY   MOSUNNY   68  45  42 E8        29.94R
CHANDLER       SUNNY     72  46  40 VRB5      29.93R
$$

AZZ027-028-251600-
SOUTHWEST MARICOPA COUNTY AND PINAL COUNTY

CITY           SKY/WX    TMP DP  RH WIND       PRES   REMARKS
CASA GRANDE    SUNNY     70  45  40 S3        29.93R
GILA BEND      FAIR      74  47  38 N3        29.91R
$$

AZZ503-504-507>509-251600-
SOUTHEAST ARIZONA

CITY           SKY/WX    TMP DP  RH WIND       PRES   REMARKS
TUCSON         SUNNY     68  41  37 S5        30.01R
DAVIS-MONTHAN  SUNNY     68  41  37 S6        29.99R
RYAN FIELD       N/A     66  43  42 CALM      30.00R
NOGALES        SUNNY     62  38  40 CALM      30.04R
SIERRA VISTA   SUNNY     63  34  33 SE3       30.07R
DOUGLAS        SUNNY     62  32  32 CALM      30.06R
SAFFORD        SUNNY     63  34  33 VRB3      29.98R
$$

AZZ020-021-025-026-031-251600-
SOUTHWEST ARIZONA

CITY           SKY/WX    TMP DP  RH WIND       PRES   REMARKS
YUMA           SUNNY     75  52  44 SE13      29.88R
$$

CAZ031-033-041-043-047-048-061-251600-
SOUTHERN CALIFORNIA

CITY           SKY/WX    TMP DP  RH WIND       PRES   REMARKS
DOWNTOWN L.A.  CLOUDY    61  54  77 CALM      29.98S
L.A. AIRPORT   CLOUDY    59  54  83 VRB5      29.99R
SAN DIEGO      CLOUDY    62  55  77 NW6       30.00R
BURBANK        CLOUDY    58  51  78 SE6       29.99R
ONTARIO        CLOUDY    57  52  83 CALM      29.99R HAZE
RIVERSIDE      CLOUDY    58  53  84 NW3       30.00R
PALM SPRINGS   SUNNY     70  51  51 CALM      29.89R
EL CENTRO NAS  SUNNY     72  50  45 SE5       29.88R
IMPERIAL       SUNNY     71  55  56 SE7       29.86R
BLYTHE         SUNNY     75  53  46 S15       29.87R
NEEDLES        MOSUNNY   75  53  46 N9        29.89R
$$

NVZ020-UTZ003-251600-
SOUTHERN NEVADA-UTAH

CITY           SKY/WX    TMP DP  RH WIND       PRES   REMARKS
LAS VEGAS      MOSUNNY   66  53  63 SW3       29.92R
SALT LAKE CITY PTSUNNY   55  49  80 SE7       29.97R
$$

NMZ009-TXZ055-251600-
NEW MEXICO-WEST TEXAS

CITY           SKY/WX    TMP DP  RH WIND       PRES   REMARKS
ALBUQUERQUE    MOSUNNY   55  43  63 S6        30.02R
EL PASO        SUNNY     68  33  27 W12       29.98R
$$


........................KEY........................
SKY/WX - SKY CONDITION/WEATHER
TMP    - TEMPERATURE IN FAHRENHEIT
DP     - DEW POINT IN FAHRENHEIT
RH     - RELATIVE HUMIDITY IN PERCENT
WIND   - DIRECTION AND SPEED IN MILES PER HOUR (MPH)
VRB    - VARIABLE WIND DIRECTION
PRES   - MEAN SEA LEVEL PRESSURE IN INCHES OF MERCURY
         F - FALLING PRESSURE   R - RISING PRESSURE
         S - STEADY PRESSURE
VSB    - VISIBILITY IN MILES
HX     - HEAT INDEX IN FAHRENHEIT
WCI    - WIND CHILL INDEX IN FAHRENHEIT
TC     - TEMPERATURE IN CELSIUS WHICH IS ALSO KNOWN AS
         TEMPERATURE IN CENTIGRADE
AFB    - AIR FORCE BASE
         LUKE AFB IS LUKE AIR FORCE BASE
         DAVIS-MONTHAN IS DAVIS-MONTHAN AIR FORCE BASE
NAS    - NAVAL AIR STATION
         EL CENTRO NAS IS EL CENTRO NAVAL AIR STATION
N/A    - NOT AVAILABLE



USA.gov is the U.S. government's official web portal to all federal, state and local government web resources and services.